[[{"header":{"parameterUnit":"m.s-1","parameterCategory":1,"la1":30.2992,"la2":30.254,"lo1":-89.0895,"lo2":-89.0443,"dy":0.0025,"dx":0.0025,"nx":19,"ny":19,"refTime":"2026-05-20T09:00:00:Z","depth":0,"parameterNumber":2,"parameterNumberName":"U-component_of_WINDS"},"data":[0,0,0,-3.7184,-3.7185,-3.7234,-3.7234,-3.7309,-3.731,0,0,0,0,0,0,0,0,0,0,0,-3.7178,-3.7178,-3.7184,-3.7185,-3.7234,-3.7234,-3.7309,-3.731,0,0,0,0,0,0,0,0,0,0,0,-3.7177,-3.7178,-3.7179,-3.7185,-3.7234,-3.7234,-3.7308,-3.7267,0,0,0,0,0,0,0,0,0,0,-3.7218,-3.722,-3.7178,-3.7179,-3.7186,-3.7234,-3.7234,-3.7265,-3.727,-3.7292,0,-3.7315,0,-3.7314,-3.7315,-3.7316,0,0,0,-3.7179,-3.7216,-3.7222,-3.7179,-3.7186,-3.7234,-3.721,-3.7267,-3.7273,-3.7299,-3.7316,-3.7319,-3.7315,-3.7316,-3.7317,-3.7472,-3.7473,0,0,-3.7176,-3.719,-3.7218,-3.7226,-3.722,-3.7209,-3.7212,-3.727,-3.729,-3.7317,-3.732,-3.7316,-3.7317,-3.7317,-3.7471,-3.7472,0,0,0,-3.7173,-3.7189,-3.7193,-3.7223,-3.7231,-3.721,-3.7214,-3.7287,-3.7288,-3.7321,-3.7317,-3.7317,-3.7318,-3.7469,-3.7471,-3.7535,0,0,0,-3.7171,-3.7187,-3.7192,-3.7201,-3.723,-3.726,-3.723,-3.7284,-3.729,-3.7317,-3.7317,-3.7319,-3.7468,-3.747,-3.7531,-3.7562,0,0,0,-3.7172,-3.7187,-3.7197,-3.7202,-3.7224,-3.7259,-3.7262,-3.7285,-3.7288,-3.7316,-3.7319,-3.7468,-3.747,-3.7527,-3.7556,-3.7607,0,0,0,-3.7176,-3.7253,-3.7198,-3.7282,-3.7224,-3.7299,-3.7262,-3.7317,-3.7349,-3.7318,-3.7468,-3.7471,-3.7526,-3.7552,-3.7603,-3.7651,-3.7672,0,0,-3.728,-3.7266,-3.7314,-3.7267,-3.7356,-3.729,-3.7389,-3.7403,-3.7393,-3.7446,-3.7449,-3.7532,-3.7556,-3.7606,-3.7793,-3.7811,0,0,0,-3.7352,-3.7387,-3.7407,-3.7439,-3.7454,-3.7468,-3.7467,-3.7473,-3.7518,-3.7423,-3.7565,-3.7578,-3.7607,-3.7629,-3.7644,-3.7667,-3.7482,-3.7482,-3.7482,-3.7517,-3.7501,-3.758,-3.7571,-3.7602,-3.7602,-3.7625,-3.7633,-3.7606,-3.764,-3.7655,-3.777,-3.7797,-3.7808,-3.7833,-3.768,-3.7681,-3.7681,-3.7681,-3.7667,-3.7713,-3.7679,-3.7743,-3.7725,-3.7779,-3.7782,-3.7762,-3.7808,-3.7758,-3.7782,-3.7726,-3.7828,-3.7848,-3.7686,-3.7685,-3.7684,-3.7684,-3.7684,-3.7772,-3.7791,-3.7799,-3.7844,-3.7881,-3.7869,-3.7916,-3.7899,-3.7882,-3.7907,-3.792,-3.7919,-3.7914,-3.7915,-3.7916,-3.7916,-3.7916,-3.7917,-3.7917,-3.7876,-3.7883,-3.7925,-3.7949,-3.7968,-3.7991,-3.7993,-3.8011,-3.8026,-3.801,-3.801,-3.7979,-3.7842,-3.7806,-3.7923,-3.7922,-3.7921,-3.792,-3.792,-3.803,-3.7993,-3.8058,-3.8077,-3.8105,-3.8143,-3.8122,-3.816,-3.8172,-3.8196,-3.8162,-3.8064,-3.8047,-3.8035,-3.8005,-3.8166,-3.8166,-3.8166,-3.8166,-3.8116,-3.8108,-3.8171,-3.8203,-3.8232,-3.8221,-3.8294,-3.8298,-3.8295,-3.8302,-3.8277,-3.8238,-3.8226,-3.8216,-3.82,-3.8172,-3.8371,-3.8372,-3.8372,-3.8209,-3.8203,-3.8268,-3.8267,-3.8288,-3.8307,-3.8376,-3.8413,-3.8403,-3.838,-3.8307,-3.8298,-3.8234,-3.8214,-3.8186,-3.8161,-3.811,0,0]},{"header":{"parameterUnit":"m.s-1","parameterCategory":1,"la1":30.2992,"la2":30.254,"lo1":-89.0895,"lo2":-89.0443,"dy":0.0025,"dx":0.0025,"nx":19,"ny":19,"refTime":"2026-05-20T09:00:00:Z","depth":0,"parameterNumber":3,"parameterNumberName":"V-component_of_WINDS"},"data":[0,0,0,3.0794,3.0793,3.075,3.075,3.0698,3.0698,0,0,0,0,0,0,0,0,0,0,0,3.0812,3.0812,3.0794,3.0793,3.075,3.075,3.0698,3.0698,0,0,0,0,0,0,0,0,0,0,0,3.0812,3.0812,3.0812,3.0793,3.075,3.075,3.0698,3.0729,0,0,0,0,0,0,0,0,0,0,3.077,3.0793,3.0812,3.0812,3.0793,3.075,3.075,3.073,3.0727,3.072,0,3.0719,0,3.0708,3.0695,3.0695,0,0,0,3.0788,3.0796,3.0779,3.0812,3.0792,3.075,3.0768,3.0728,3.0725,3.0716,3.0718,3.0716,3.0707,3.0695,3.0694,3.0682,3.0682,0,0,3.079,3.0807,3.0782,3.0777,3.0788,3.0769,3.0767,3.0726,3.0728,3.0718,3.0715,3.0706,3.0694,3.0694,3.0681,3.0682,0,0,0,3.0801,3.0808,3.0793,3.078,3.0772,3.0768,3.0765,3.073,3.0724,3.0714,3.0706,3.0694,3.0694,3.0681,3.0682,3.0708,0,0,0,3.0802,3.0814,3.0794,3.0804,3.0773,3.0751,3.077,3.0726,3.0721,3.0706,3.0694,3.0693,3.0681,3.0681,3.0707,3.0717,0,0,0,3.0813,3.0816,3.0812,3.0805,3.0787,3.0751,3.0743,3.0725,3.0716,3.0695,3.0693,3.0681,3.0681,3.0706,3.0716,3.072,0,0,0,3.0829,3.0834,3.0812,3.0814,3.0788,3.0769,3.0743,3.0727,3.0711,3.0694,3.0681,3.0682,3.0706,3.0715,3.0719,3.0727,3.0731,0,0,3.0844,3.0836,3.0836,3.0816,3.0806,3.0774,3.0766,3.0735,3.0716,3.0693,3.0693,3.0707,3.0716,3.0719,3.0752,3.0756,0,0,0,3.0847,3.0847,3.084,3.0828,3.0807,3.0788,3.0757,3.0745,3.0726,3.0709,3.0709,3.0713,3.0715,3.0718,3.0721,3.0721,3.0684,3.0684,3.0683,3.0891,3.087,3.0868,3.0841,3.0829,3.0798,3.0785,3.0763,3.0742,3.0743,3.0736,3.0759,3.0763,3.0765,3.0766,3.0738,3.0738,3.0738,3.0738,3.0912,3.0909,3.0884,3.0873,3.0849,3.0838,3.0807,3.0793,3.0778,3.0762,3.0762,3.0747,3.0771,3.077,3.074,3.0739,3.0739,3.0739,3.0739,3.094,3.0935,3.0922,3.0903,3.0889,3.086,3.0848,3.0825,3.0803,3.0803,3.0794,3.0793,3.079,3.08,3.08,3.08,3.0801,3.0801,3.0801,3.0974,3.0959,3.0953,3.0931,3.0921,3.0903,3.0871,3.0858,3.0838,3.0822,3.0822,3.0801,3.0778,3.0772,3.0802,3.0802,3.0801,3.0801,3.0801,3.1004,3.0994,3.0986,3.0975,3.0947,3.0935,3.0906,3.0883,3.0869,3.0863,3.0842,3.0828,3.0817,3.0814,3.081,3.0847,3.0847,3.0847,3.0847,3.1028,3.1021,3.1008,3.0992,3.0974,3.0948,3.0936,3.091,3.0881,3.087,3.0861,3.0853,3.0851,3.0841,3.0838,3.0833,3.0876,3.0876,3.0876,3.1046,3.1036,3.1033,3.1007,3.0983,3.0962,3.095,3.0931,3.0895,3.0877,3.0861,3.086,3.0847,3.0844,3.0826,3.0821,3.0812,0,0]}]]